Regional Weather Roundup
Issued by NWS Charleston, WV

Home | Current Version | Previous Version | Graphics & Text | Print | Product List | Glossary On
Versions: 1 2 3 4 5 6 7 8 9 10 11 12 13 14 15 16 17 18 19 20 21 22 23 24 25 26 27
000
ASUS41 KRLX 290810
RWRRLX
West Virginia Regional Weather Roundup
National Weather Service Charleston WV
400 AM EDT SAT APR 29 2017

Note: "fair" indicates few or no clouds below 12,000 feet with no
significant weather and/or obstructions to visibility.

WVZ003-290900-
Northern Panhandle of West Virginia

CITY           SKY/WX    TMP DP  RH WIND       PRES   REMARKS
WHEELING       LGT RAIN  55  53  93 S6        30.00F
$$

WVZ009-290900-
Northwest West Virginia

CITY           SKY/WX    TMP DP  RH WIND       PRES   REMARKS
PARKERSBURG    TSTM      59  58  96 VRB3      30.04S FOG
$$

WVZ006-290900-
Western West Virginia

CITY           SKY/WX    TMP DP  RH WIND       PRES   REMARKS
HUNTINGTON     CLOUDY    70  59  68 SE6       30.00S
$$

WVZ015-290900-
West Central West Virginia

CITY           SKY/WX    TMP DP  RH WIND       PRES   REMARKS
CHARLESTON     CLOUDY    69  56  62 E7        30.02F
$$

WVZ022-031-290900-
North Central West Virginia

CITY           SKY/WX    TMP DP  RH WIND       PRES   REMARKS
CLARKSBURG     CLOUDY    57  56  96 SE5       30.04S
MORGANTOWN     LGT RAIN  61  57  87 S6        30.03F
$$

WVZ025-035-042-045-290900-
Southern West Virginia

CITY           SKY/WX    TMP DP  RH WIND       PRES   REMARKS
BECKLEY        CLOUDY    68  57  68 S10       30.13R
LOGAN            N/A     72  61  68 S7        30.06R
BLUEFIELD      CLOUDY    66  55  67 S5        30.17R
LEWISBURG      CLOUDY    61  59  91 CALM      30.15R
$$

WVZ047-290900-
Northern Mountains of West Virginia

CITY           SKY/WX    TMP DP  RH WIND       PRES   REMARKS
ELKINS         CLOUDY    58  55  90 S6        30.11F
$$

WVZ052-290900-
Eastern Panhandle of West Virginia

CITY           SKY/WX    TMP DP  RH WIND       PRES   REMARKS
MARTINSBURG    LGT RAIN  65  64  97 SE6       30.05R FOG
PETERSBURG     CLOUDY    65  64  94 S3        30.06F
$$




USA.gov is the U.S. government's official web portal to all federal, state and local government web resources and services.